Location: Kyabaganga
(1.4333°N, 32.4333°E)
Time: 00:27:33
(UTC+00:00)

Daily predictions for brighter satellites

Satellite Brightness Start Highest point End
(mag) Time Altitude Azimuth Time Altitude Azimuth Time Altitude Azimuth
Milstar 3 Cent rocket 3.9 01:05:24 72° NNW 01:06:53 79° NNE 01:28:09 10° ESE
Cosmos 1934 Rocket 4.1 01:32:17 10° N 01:38:18 70° E 01:44:27 10° S
CZ-3 R/B 4.4 01:00:43 10° SW 01:41:42 46° SSE 01:51:50 10° E
Cosmos 2227 Rocket 3.3 01:45:03 32° S 01:45:03 32° S 01:48:01 10° SSE
Cosmos 1238 Rocket 3.8 01:40:31 10° N 01:46:25 70° E 01:51:22 10° S
Meteor 1-27 Rocket 3.8 01:46:04 10° S 01:51:56 79° E 01:57:50 10° N
Ariane H10 3.8 01:52:34 40° SSW 01:54:16 47° SSE 02:09:18 10° E
Cosmos 1814 Rocket 4.4 01:54:14 19° S 01:57:47 60° ESE 02:02:50 10° NNE
ADEOS 3.4 01:54:29 10° NNE 01:59:42 87° W 02:01:10 49° SSW
Cosmos 1605 Rocket 4.3 01:54:51 10° N 02:01:10 67° E 02:07:28 10° SSE
ARIANE 5 DEB (SYLDA) 4.3 02:00:32 44° SSW 02:01:46 52° SSE 02:15:51 10° E
Cosmos 1535 Rocket 4.4 01:55:36 10° N 02:01:57 73° W 02:08:17 10° S
Cosmos 841 Rocket 3.3 02:02:53 66° SSW 02:03:36 82° WNW 02:08:46 10° N
ARIANE 5 DEB (SYLDA) 2.9 02:07:41 75° NE 02:07:41 75° NE 02:13:04 10° E
Ariane V96 H10-3 4.1 02:08:36 25° SE 02:08:36 25° SE 02:11:27 10° ESE
Cosmos 1727 Rocket 4.0 02:06:12 36° SW 02:08:33 55° W 02:14:43 10° N
Cosmos 1862 Rocket 4.1 02:09:22 10° S 02:13:46 59° E 02:18:06 10° NNE
Cosmos 1570 Rocket 3.9 02:13:05 45° SW 02:14:29 62° WNW 02:19:41 10° N
Cosmos 2360 Rocket 2.1 02:14:34 34° SW 02:16:59 61° WNW 02:22:33 10° N
Ariane H10 2.7 02:16:50 69° W 02:17:13 87° N 02:22:57 10° E
Ariane H10+ 2.6 02:17:00 56° WSW 02:18:01 77° S 02:22:39 10° E
IRIDIUM 106 4.2 02:15:28 10° N 02:20:40 78° W 02:25:53 10° S
ARIANE 5 R/B 2.2 02:20:50 41° S 02:20:50 41° S 02:22:57 10° ESE
ALOS 2.1 02:16:31 10° N 02:21:08 73° WNW 02:25:47 10° SSW
ISS -2.7 02:23:53 33° S 02:23:53 33° S 02:26:03 10° SSE
H-2A R/B 1.9 02:19:35 10° S 02:23:43 61° WSW 02:27:55 10° NNW
Cosmos 1437 Rocket 3.9 02:20:50 10° SSE 02:24:25 42° E 02:27:58 10° NNE
Cosmos 1869 Rocket 3.5 02:23:08 10° N 02:27:27 86° E 02:31:47 10° S
ERS-2 2.3 02:23:51 10° SSE 02:27:29 70° ENE 02:31:07 10° N
Hubble Space Telescope 0.8 02:27:45 49° W 02:28:33 61° NNW 02:32:36 10° NE
BLOCK DM-SL R/B 2.7 02:27:40 43° WSW 02:28:47 77° S 02:41:22 10° E
Cosmos 2297 Rocket 4.2 02:32:38 12° SW 02:32:38 12° SW 02:33:08 10° SSW
Cosmos 2322 Rocket 4.0 02:34:55 13° NW 02:34:55 13° NW 02:35:53 10° NNW
Cosmos 1484 Rocket 3.2 02:28:59 10° N 02:32:45 41° WNW 02:33:28 37° WSW
Cosmos 2123 Rocket 4.4 02:27:29 10° S 02:33:37 66° E 02:39:46 10° NNE
Cosmos 2082 3.9 02:28:10 10° NNW 02:33:39 49° WSW 02:39:09 10° S
EPKM 3.6 02:31:56 31° WNW 02:33:54 53° NNW 02:48:09 10° ENE
Delta 2 Rocket 2.7 02:33:50 52° W 02:34:18 60° NW 02:37:36 10° NE
ARIANE 44L R/B 3.9 02:32:51 25° SW 02:35:09 47° S 02:52:47 10° E
ARIANE 5 R/B 2.2 02:35:47 27° W 02:38:21 79° S 02:40:37 10° E
Ariane 42L Rocket 3.5 02:35:22 21° WSW 02:41:11 53° S 02:44:23 10° ESE
SJ 16-02 2.7 02:39:04 10° N 02:43:13 42° ENE 02:47:23 10° SSE
Meteor 1-31 Rocket 3.3 02:39:53 10° NNW 02:43:23 34° W 02:46:56 10° SW
Intelsat 5-1 Rocket 4.2 02:38:22 17° NW 02:43:32 76° NNE 03:03:27 10° ESE
OAO 3 Rocket 4.0 02:43:17 24° W 02:45:27 36° NW 02:49:59 10° NNE
Cosmos 540 Rocket 4.5 02:46:24 21° W 02:47:42 23° WNW 02:51:44 10° NNW
Cosmos 1515 4.1 02:50:19 10° S 02:54:06 66° E 02:57:52 10° N
FENGYUN 3A 4.5 02:51:12 10° NNW 02:55:46 28° WNW 03:00:22 10° SW
Meteor PRIRODA 3.6 02:52:40 10° N 02:56:13 56° WNW 02:59:47 10° SSW
Cosmos 1459 Rocket 4.4 02:51:30 10° N 02:57:29 67° E 03:03:29 10° SSE
ARIANE 5 R/B 3.7 02:54:14 16° WSW 02:58:57 78° SSE 03:53:19 10° E
Cosmos 2263 Rocket 3.2 02:54:35 10° N 03:00:05 52° ENE 03:05:35 10° SSE
GPS 2-17 Rocket1 3.5 02:56:55 17° W 03:00:17 46° SSW 03:04:39 10° SE
ADEOS Rocket 3.5 02:53:08 10° S 03:00:44 68° WSW 03:07:46 10° NNW
GPS 2-12 Rocket1 3.5 02:57:26 12° SW 03:01:29 55° SSE 03:05:49 10° E
CZ-3 Stage 3 1.9 03:01:06 12° SW 03:02:52 64° SE 03:07:32 10° ENE
CZ-4B R/B 1.2 03:00:10 10° S 03:03:10 55° W 03:06:08 10° NNW
CZ-3A R/B 1.7 03:01:02 12° SW 03:03:18 56° SSE 03:09:57 10° ENE
PSLV R/B 4.0 02:59:58 10° NNE 03:03:48 74° E 03:07:46 10° S
Meteor 1-18 Rocket 4.2 02:59:15 10° S 03:04:52 80° W 03:10:25 10° N
COSMOS 2428 2.7 02:59:46 10° SSW 03:05:27 85° WNW 03:11:09 10° NNE
ARIANE 5 DEB (SYLDA) 3.2 02:58:05 13° W 03:06:26 84° N 03:11:04 10° E
Ariane H10 3.4 03:04:37 13° W 03:07:38 88° N 03:22:19 10° E
SWIFT 3.4 03:04:03 10° SW 03:08:05 40° SSE 03:12:06 10° E
Cosmos 2219 Rocket 2.2 03:03:18 10° SSW 03:08:52 65° WNW 03:14:26 10° N
Cosmos 1703 Rocket 3.5 03:04:38 10° S 03:09:00 89° WNW 03:13:18 10° N
Cosmos 2227 4.4 03:05:21 10° N 03:10:57 76° ENE 03:16:33 10° SSE
Cosmos 2242 Rocket 3.7 03:07:36 10° SSW 03:11:56 54° W 03:16:12 10° N
Meteor 1-19 Rocket 4.1 03:08:32 10° SSW 03:13:55 70° W 03:19:17 10° N
Cosmos 2333 Rocket 2.5 03:10:17 10° SSW 03:15:46 47° WNW 03:21:17 10° N
Aurora 2 Rocket 3.1 03:12:33 10° SW 03:16:52 69° SSE 03:23:05 10° ENE
USA 281 3.4 03:10:41 10° N 03:17:01 53° WNW 03:23:22 10° SW
Atlas Centaur 2 3.5 03:14:11 10° SSW 03:18:16 31° SE 03:23:16 10° E
Cosmos 2237 Rocket 4.0 03:14:03 10° S 03:19:13 36° ESE 03:24:21 10° NE
Cosmos 1666 3.5 03:16:13 10° NNW 03:19:27 28° W 03:22:42 10° SSW
YAOGAN 6 4.5 03:16:58 10° NNE 03:20:20 36° E 03:23:45 10° S
ARIANE 5 DEB (SYLDA 5A) 3.9 03:14:09 10° W 03:33:27 71° S 03:37:09 10° E
